| time (UTC) | temp C | wind direction | speed KPH | gust KPH | rain 1hr cm | rain 24hr cm | rain mn cm | humidity % | barometer mb |
| 20260906193013 | 21 | 329 | 8.0 | 16.1 | 0.00 | 0.00 | 0.00 | 57 | 1018.3 |
| 20260906191519 | 21 | 72 | 8.0 | 17.7 | 0.00 | 0.00 | 0.00 | 56 | 1018.3 |
| 20260906190027 | 21 | 42 | 6.4 | 16.1 | 0.00 | 0.00 | 0.00 | 55 | 1018.4 |
| 20260906184530 | 21 | 360 | 3.2 | 16.1 | 0.00 | 0.00 | 0.00 | 57 | 1018.2 |
| 20260906183031 | 21 | 44 | 6.4 | 20.9 | 0.00 | 0.00 | 0.00 | 57 | 1018.4 |
| 20260906181523 | 21 | 67 | 8.0 | 20.9 | 0.00 | 0.00 | 0.00 | 56 | 1018.5 |
| 20260906180036 | 21 | 48 | 6.4 | 17.7 | 0.00 | 0.00 | 0.00 | 58 | 1018.7 |
| 20260906174534 | 21 | 57 | 3.2 | 17.7 | 0.00 | 0.00 | 0.00 | 57 | 1018.7 |
| 20260906173032 | 20 | 46 | 6.4 | 16.1 | 0.00 | 0.00 | 0.00 | 59 | 1018.7 |
| 20260906171514 | 21 | 51 | 4.8 | 22.5 | 0.00 | 0.00 | 0.00 | 57 | 1018.6 |
| 20260906170022 | 20 | 123 | 9.7 | 17.7 | 0.00 | 0.00 | 0.00 | 59 | 1018.6 |
| 20260906164525 | 20 | 91 | 6.4 | 19.3 | 0.00 | 0.00 | 0.00 | 59 | 1018.6 |
| 20260906163027 | 20 | 360 | 4.8 | 17.7 | 0.00 | 0.00 | 0.00 | 55 | 1018.8 |
| 20260906161533 | 20 | 66 | 3.2 | 17.7 | 0.00 | 0.00 | 0.00 | 62 | 1018.8 |
| 20260906160022 | 20 | 355 | 3.2 | 17.7 | 0.00 | 0.00 | 0.00 | 65 | 1018.8 |
| 20260906154525 | 19 | 290 | 6.4 | 16.1 | 0.00 | 0.00 | 0.00 | 70 | 1018.9 |
| 20260906153031 | 19 | 317 | 6.4 | 14.5 | 0.00 | 0.00 | 0.00 | 71 | 1018.9 |
| 20260906151532 | 18 | 337 | 8.0 | 16.1 | 0.00 | 0.00 | 0.00 | 70 | 1019.1 |
| 20260906150035 | 18 | 323 | 4.8 | 16.1 | 0.00 | 0.00 | 0.00 | 72 | 1019.0 |
| 20260906144523 | 18 | 63 | 6.4 | 22.5 | 0.00 | 0.00 | 0.00 | 75 | 1018.9 |
| 20260906143027 | 18 | 360 | 6.4 | 16.1 | 0.00 | 0.00 | 0.00 | 75 | 1018.8 |
| 20260906141512 | 17 | 5 | 6.4 | 14.5 | 0.00 | 0.00 | 0.00 | 77 | 1018.7 |
| 20260906140005 | 17 | 69 | 3.2 | 12.9 | 0.00 | 0.00 | 0.00 | 80 | 1018.7 |
| 20260906134504 | 17 | 20 | 6.4 | 14.5 | 0.00 | 0.00 | 0.00 | 81 | 1018.6 |
| 20260906133005 | 16 | 336 | 3.2 | 8.0 | 0.00 | 0.00 | 0.00 | 84 | 1018.6 |
| 20260906131504 | 16 | 53 | 4.8 | 8.0 | 0.00 | 0.00 | 0.00 | 85 | 1018.6 |
| 20260906130006 | 15 | 66 | 4.8 | 11.3 | 0.00 | 0.00 | 0.00 | 90 | 1018.7 |
| 20260906124507 | 15 | 19 | 3.2 | 9.7 | 0.00 | 0.00 | 0.00 | 93 | 1018.5 |
| 20260906123007 | 14 | 73 | 1.6 | 6.4 | 0.00 | 0.00 | 0.00 | 97 | 1018.5 |
| 20260906121512 | 13 | 5 | 3.2 | 8.0 | 0.00 | 0.00 | 0.00 | 98 | 1018.5 |
| 20260906120007 | 13 | 327 | 1.6 | 9.7 | 0.00 | 0.00 | 0.00 | 98 | 1018.3 |
| 20260906114516 | 12 | 5 | 3.2 | 8.0 | 0.00 | 0.00 | 0.00 | 98 | 1018.2 |
| 20260906113011 | 12 | 31 | 1.6 | 6.4 | 0.00 | 0.00 | 0.00 | 98 | 1018.2 |
| 20260906111508 | 11 | 333 | 1.6 | 4.8 | 0.00 | 0.00 | 0.00 | 98 | 1017.9 |
| 20260906110007 | 11 | 23 | 1.6 | 4.8 | 0.00 | 0.00 | 0.00 | 98 | 1017.8 |
| 20260906104514 | 11 | 347 | 1.6 | 4.8 | 0.00 | 0.00 | 0.00 | 98 | 1017.6 |
| 20260906103008 | 11 | 342 | 1.6 | 4.8 | 0.00 | 0.00 | 0.00 | 98 | 1017.4 |
| 20260906101517 | 11 | 342 | 1.6 | 4.8 | 0.00 | 0.00 | 0.00 | 98 | 1017.3 |
| 20260906100020 | 12 | 29 | 3.2 | 6.4 | 0.00 | 0.00 | 0.00 | 97 | 1017.1 |
| 20260906094506 | 12 | 10 | 3.2 | 11.3 | 0.00 | 0.00 | 0.00 | 97 | 1017.0 |
| 20260906093011 | 12 | 49 | 3.2 | 12.9 | 0.00 | 0.00 | 0.00 | 98 | 1016.8 |
| 20260906091514 | 12 | 23 | 1.6 | 6.4 | 0.00 | 0.00 | 0.00 | 97 | 1016.4 |
| 20260906090015 | 12 | 66 | 1.6 | 6.4 | 0.00 | 0.00 | 0.00 | 97 | 1016.3 |
| 20260906084514 | 12 | 28 | 1.6 | 4.8 | 0.00 | 0.00 | 0.00 | 97 | 1016.1 |
| 20260906083010 | 12 | 23 | 1.6 | 4.8 | 0.00 | 0.00 | 0.00 | 97 | 1015.9 |
| 20260906081518 | 12 | 14 | 0.0 | 4.8 | 0.00 | 0.00 | 0.00 | 97 | 1015.7 |
| 20260906080014 | 12 | 18 | 1.6 | 4.8 | 0.00 | 0.00 | 0.00 | 97 | 1015.8 |
| 20260906074514 | 12 | 20 | 3.2 | 6.4 | 0.00 | 0.00 | 0.00 | 97 | 1015.7 |
| 20260906073019 | 12 | 355 | 0.0 | 3.2 | 0.00 | 0.00 | 0.00 | 97 | 1015.6 |
| 20260906071513 | 13 | 355 | 1.6 | 3.2 | 0.00 | 0.00 | 0.00 | 97 | 1015.7 |
| 20260906070015 | 12 | 355 | 0.0 | 3.2 | 0.00 | 0.00 | 0.00 | 97 | 1015.7 |
| 20260906064516 | 12 | 355 | 0.0 | 3.2 | 0.00 | 0.00 | 0.00 | 96 | 1015.6 |
| 20260906063018 | 12 | 355 | 0.0 | 1.6 | 0.00 | 0.00 | 0.00 | 96 | 1015.6 |
| 20260906061518 | 13 | 355 | 0.0 | 1.6 | 0.00 | 0.00 | 0.00 | 96 | 1015.7 |
| 20260906060025 | 13 | 355 | 0.0 | 1.6 | 0.00 | 0.00 | 0.00 | 95 | 1015.7 |
| 20260906054532 | 13 | 355 | 0.0 | 1.6 | 0.00 | 0.00 | 0.00 | 95 | 1015.8 |
| 20260906053017 | 13 | 355 | 0.0 | 1.6 | 0.00 | 0.00 | 0.00 | 95 | 1015.8 |
| 20260906051518 | 14 | 355 | 0.0 | 1.6 | 0.00 | 0.00 | 0.00 | 94 | 1015.7 |
| 20260906050019 | 14 | 355 | 0.0 | 0.0 | 0.00 | 0.00 | 0.00 | 94 | 1015.7 |
| 20260906044516 | 15 | 355 | 0.0 | 1.6 | 0.00 | 0.00 | 0.00 | 93 | 1015.7 |
| 20260906043021 | 15 | 355 | 0.0 | 0.0 | 0.00 | 0.00 | 0.00 | 93 | 1015.8 |
| 20260906041521 | 15 | 355 | 0.0 | 0.0 | 0.00 | 0.00 | 0.00 | 93 | 1015.7 |
| 20260906040037 | 15 | 355 | 0.0 | 3.2 | 0.00 | 0.00 | 0.00 | 93 | 1015.8 |
| 20260906034523 | 15 | 355 | 0.0 | 0.0 | 0.00 | 0.00 | 0.00 | 93 | 1015.6 |
| 20260906033037 | 15 | 355 | 0.0 | 0.0 | 0.00 | 0.00 | 0.00 | 92 | 1015.6 |
| 20260906031522 | 15 | 355 | 0.0 | 1.6 | 0.00 | 0.00 | 0.00 | 92 | 1015.5 |
| 20260906030021 | 16 | 355 | 0.0 | 0.0 | 0.00 | 0.00 | 0.00 | 92 | 1015.4 |
| 20260906024526 | 16 | 355 | 0.0 | 1.6 | 0.00 | 0.00 | 0.00 | 91 | 1015.3 |
| 20260906023024 | 16 | 355 | 0.0 | 3.2 | 0.00 | 0.00 | 0.00 | 91 | 1015.3 |
| 20260906021514 | 16 | 360 | 1.6 | 4.8 | 0.00 | 0.00 | 0.00 | 91 | 1015.3 |
| 20260906020005 | 16 | 360 | 0.0 | 3.2 | 0.00 | 0.00 | 0.00 | 91 | 1015.1 |
| 20260906014511 | 16 | 5 | 0.0 | 3.2 | 0.00 | 0.00 | 0.00 | 90 | 1015.1 |
| 20260906013013 | 16 | 5 | 0.0 | 4.8 | 0.00 | 0.00 | 0.00 | 89 | 1015.1 |
| 20260906011517 | 17 | 355 | 0.0 | 4.8 | 0.00 | 0.00 | 0.00 | 89 | 1015.1 |
| 20260906010004 | 17 | 33 | 0.0 | 6.4 | 0.00 | 0.00 | 0.00 | 89 | 1015.1 |
| 20260906004504 | 17 | 331 | 0.0 | 4.8 | 0.00 | 0.00 | 0.00 | 89 | 1015.0 |
| 20260906003012 | 17 | 17 | 0.0 | 4.8 | 0.00 | 0.00 | 0.00 | 88 | 1014.9 |
| 20260906001517 | 17 | 341 | 1.6 | 8.0 | 0.00 | 0.00 | 0.00 | 88 | 1015.0 |
| 20260906000017 | 17 | 352 | 1.6 | 6.4 | 0.00 | 0.00 | 0.00 | 87 | 1014.7 |
| 20260905234507 | 17 | 26 | 1.6 | 6.4 | 0.00 | 0.00 | 0.00 | 86 | 1014.9 |
| 20260905233009 | 18 | 343 | 1.6 | 11.3 | 0.00 | 0.00 | 0.00 | 85 | 1015.0 |
| 20260905231519 | 18 | 348 | 3.2 | 6.4 | 0.00 | 0.00 | 0.00 | 84 | 1014.7 |
| 20260905230017 | 19 | 303 | 4.8 | 14.5 | 0.00 | 0.00 | 0.00 | 82 | 1014.7 |
| 20260905224540 | 20 | 5 | 3.2 | 11.3 | 0.00 | 0.00 | 0.00 | 80 | 1014.6 |
| 20260905223008 | 19 | 340 | 6.4 | 16.1 | 0.00 | 0.00 | 0.00 | 80 | 1014.6 |
| 20260905221513 | 20 | 323 | 3.2 | 12.9 | 0.00 | 0.00 | 0.00 | 78 | 1014.7 |
| 20260905220019 | 20 | 321 | 6.4 | 17.7 | 0.00 | 0.00 | 0.00 | 78 | 1014.6 |
| 20260905214520 | 20 | 329 | 6.4 | 14.5 | 0.00 | 0.00 | 0.00 | 77 | 1014.3 |
| 20260905213019 | 20 | 323 | 4.8 | 19.3 | 0.00 | 0.00 | 0.00 | 76 | 1014.1 |
| 20260905211533 | 20 | 11 | 11.3 | 19.3 | 0.00 | 0.00 | 0.00 | 76 | 1014.0 |
| 20260905210026 | 21 | 302 | 6.4 | 19.3 | 0.00 | 0.00 | 0.00 | 76 | 1014.0 |
| 20260905204520 | 21 | 350 | 8.0 | 22.5 | 0.00 | 0.00 | 0.00 | 75 | 1014.0 |
| 20260905203026 | 21 | 350 | 8.0 | 19.3 | 0.00 | 0.00 | 0.00 | 74 | 1014.1 |
| 20260905201525 | 21 | 343 | 8.0 | 19.3 | 0.00 | 0.00 | 0.00 | 73 | 1014.1 |
| 20260905200022 | 21 | 312 | 11.3 | 22.5 | 0.00 | 0.00 | 0.00 | 73 | 1014.1 |
| 20260905194520 | 21 | 345 | 8.0 | 16.1 | 0.00 | 0.00 | 0.00 | 72 | 1014.0 |